User: anonymous   Login
Location: C�an Torras
(41.5052°N, 1.9280°E)
Time: 23:59:16
(UTC+00:00)
Language:

Aureole 3 - Orbit

View from above orbital plane
View from above orbital plane
View from above satellite
View from above satellite

Ground track
Ground track

The orbit data is extracted from the following two-line orbital elements,

1 12848U 81094A   21110.52460711  .00001354  00000-0  80537-4 0  9996
2 12848  82.4810 151.3283 0588795 251.1451 102.5030 14.25809706989348
Epoch (UTC): 20 April 2021 12:35:26
Eccentricity: 0.0588795
inclination: 82.4810°
perigee height: 383 km
apogee height: 1229 km
right ascension of ascending node: 151.3283°
argument of perigee: 251.1451°
revolutions per day: 14.25809706
mean anomaly at epoch: 102.5030°
orbit number at epoch: 98934

The dashed part of the orbit path shows where the satellite is in the earth's shadow,  

DLR